#timestamp,LO_Frequency,Hit,StdDev 
1553018415.6,286047009.0,N
1553018435.5,286047010.8,Y
1553018455.3,286047000.5,P
1553018475.2,286047001.5,N
1553018495.9,286047003.1,N
1553018515.7,286047007.5,Y
1553018535.6,286047003.5,P
1553018555.4,286047007.9,P
1553018575.3,286047010.0,P
1553018595.1,286047007.5,N
1553018596.0,286047007.5,N
1553018615.8,286047005.0,N
1553018635.7,286047005.3,N
1553018655.5,286047005.1,N
1553018675.3,286047007.5,Y
1553018695.2,286047003.7,P
1553018715.0,286047001.8,N
1553018715.9,286047001.8,N
1553018735.8,286047005.9,Y
1553018755.6,286047000.0,P
1553018775.4,286047003.0,N
1553018795.3,286047002.0,N
1553018815.1,286046999.9,N
1553018835.9,286047007.5,Y
1553018855.7,286047002.9,P
1553018875.5,286047006.2,P
1553018895.4,286047003.1,N
1553018915.2,286047005.0,N
1553018935.0,286047004.5,N
1553018935.9,286047004.5,N
1553018955.8,286047008.4,Y
1553018975.6,286047005.3,P
1553018995.5,286047005.5,P
1553019015.3,286047005.2,P
1553019035.1,286047007.3,Y
1553019055.9,286047000.9,P
1553019075.7,286047000.8,N
1553019095.5,286046998.4,N
1553019115.4,286047001.8,N
1553019135.2,286047000.1,N
1553019155.1,286046997.9,N
1553019156.0,286046997.9,N
1553019175.8,286046997.5,N
1553019195.6,286046995.6,N
1553019215.5,286046997.9,N
1553019235.3,286046997.8,N
1553019255.1,286046996.3,N
1553019275.9,286046995.9,N
1553019295.7,286046996.4,N
1553019315.6,286046994.3,N
1553019335.4,286046992.5,N
1553019355.2,286046994.6,N
1553019375.1,286046997.0,N
1553019376.0,286046997.0,N
1553019395.8,286046997.8,N
1553019415.6,286046998.0,N
1553019435.5,286046997.3,N
1553019455.3,286047000.1,N
1553019475.2,286047000.6,N
1553019495.9,286046998.3,N
1553019515.7,286047001.2,N
1553019535.6,286047000.5,N
1553019555.4,286047000.6,N
1553019575.2,286047002.8,N
1553019595.1,286047002.7,N
1553019596.0,286047002.7,N
1553019615.8,286047002.0,N
1553019635.7,286047001.5,N
1553019655.5,286047002.1,N
1553019675.3,286047002.5,N
1553019695.2,286047004.3,N
1553019715.9,286047003.2,N
1553019735.7,286047004.9,N
1553019755.6,286047012.1,Y
1553019775.4,286047008.4,P
1553019795.3,286047014.7,P
1553019815.1,286047018.3,N
1553019816.0,286047018.3,N
1553019835.8,286047023.0,Y
1553019855.7,286047009.7,P
1553019875.5,286047006.8,P
1553019895.3,286047003.4,N
1553019915.2,286047001.5,N
1553019935.0,286047002.2,N
1553019935.9,286047002.2,N
1553019955.8,286047002.9,N
1553019975.6,286047001.1,N
1553019995.4,286047000.5,N
1553020015.3,286047002.5,N
1553020035.1,286047003.7,N
1553020055.8,286047002.1,N
1553020075.7,286047004.4,N
1553020095.5,286047000.6,N
1553020115.4,286047003.9,N
1553020135.2,286047004.4,N
1553020155.0,286047001.2,N
1553020155.9,286047001.2,N
1553020175.8,286046999.9,N
1553020195.6,286047001.5,N
1553020215.4,286047004.3,N
1553020235.3,286047004.3,N
1553020255.1,286047002.5,N
1553020275.9,286047000.1,N
1553020295.7,286047001.8,N
1553020315.5,286047003.0,N
1553020335.4,286047006.0,N
1553020355.2,286047005.8,N
1553020375.0,286047003.7,N
1553020375.9,286047003.7,N
1553020395.8,286047005.6,N
1553020415.6,286047007.8,Y
1553020435.5,286047004.2,P
1553020455.3,286047007.4,P
1553020475.1,286047006.5,P
1553020495.9,286047010.4,Y
1553020515.7,286047007.9,P
1553020535.5,286047021.9,P
1553020555.4,286047018.1,N
1553020575.2,286047018.0,N
1553020595.1,286047013.3,N
1553020596.0,286047013.3,N
1553020615.8,286047009.4,N
1553020635.6,286047012.0,N
1553020655.5,286047011.1,N
1553020675.3,286047011.8,N
1553020695.1,286047004.9,N
1553020715.9,286047004.3,N
1553020735.7,286047003.1,N
1553020755.6,286047005.0,N
1553020775.4,286047010.4,N
1553020795.2,286047006.1,N
1553020815.1,286047010.5,N
1553020816.0,286047010.5,N
1553020835.8,286047010.3,N
1553020855.6,286047009.8,N
1553020875.5,286047008.1,N
1553020895.3,286047011.7,N
1553020915.2,286047012.2,N
1553020935.9,286047015.4,Y
1553020955.7,286047001.6,P
1553020975.6,286047001.3,N
1553020995.4,286046998.4,N
1553021015.2,286046999.2,N
1553021035.1,286047000.8,N
1553021036.0,286047000.8,N
1553021055.8,286047000.7,N
1553021075.7,286046999.9,N
1553021095.5,286047000.2,N
1553021115.3,286047003.6,N
1553021135.2,286047008.3,N
1553021155.0,286047007.8,N
1553021155.9,286047007.8,N
1553021175.7,286047012.7,Y
1553021195.6,286047009.6,P
1553021215.4,286047014.9,P
1553021235.3,286047018.4,P
1553021255.1,286047015.9,N
1553021256.0,286047015.9,N
1553021275.8,286047008.1,N
1553021295.7,286047013.1,N
1553021315.5,286047019.9,Y
1553021335.3,286047001.5,P
1553021355.2,286047001.0,N
1553021375.0,286046997.6,N
1553021375.9,286046997.6,N
1553021395.8,286046993.4,N
1553021415.6,286047000.2,N
1553021435.4,286047011.8,N
1553021455.3,286047007.0,N
1553021475.1,286047004.4,N
1553021495.8,286046999.1,N
1553021515.7,286046997.8,N
1553021535.5,286047002.8,N
1553021555.4,286046999.2,N
1553021575.2,286046997.2,N
1553021595.0,286046997.3,N
1553021595.9,286046997.3,N
1553021615.8,286047000.4,N
1553021635.6,286047004.0,N
1553021655.4,286047003.2,N
1553021675.3,286047006.8,N
1553021695.1,286047011.5,N
1553021715.9,286047008.3,N
1553021735.7,286047005.8,N
1553021755.5,286047001.8,N
1553021775.4,286046999.3,N
1553021795.2,286047002.2,N
1553021815.0,286047004.6,N
1553021815.9,286047004.6,N
1553021835.8,286047007.6,N
1553021855.6,286047004.8,N
1553021875.5,286047003.7,N
1553021895.3,286047011.8,N
1553021915.1,286047010.1,N
1553021935.9,286047005.1,N
1553021955.7,286047003.4,N
1553021975.5,286047011.5,N
1553021995.4,286047015.6,Y
